Presure
141 118 152 162 167 145 141 160 146 150 153 150 152 161 159 148 139 162 157 159 150 161 154 175 168 161 150 162 166 166 187 198 158 180 177 169 187 194 187 198 202 217 187 262 279 283 319
158 157 144 133 147 146 136 145 152 137 127 144 149 154 157 157 151 142 148 141 160 158 159 167 163 158 172 171 165 180 166 157 189 175 166 159 212 204 187 179 187 177 208 220 185 283 279
150 145 148 149 135 122 146 132 132 145 155 132 146 126 153 151 146 153 153 163 160 157 166 153 160 170 158 183 164 164 172 215 201 164 174 183 166 195 200 177 191 192 176 177 200 213 280
127 162 117 150 130 160 142 160 149 131 144 137 157 150 137 157 147 146 161 136 153 147 157 156 163 163 168 156 179 187 179 152 194 188 187 199 194 214 155 199 190 216 194 214 206 170 216
120 125 149 143 134 129 131 140 134 122 141 150 141 152 135 125 157 152 141 151 154 159 159 158 155 158 165 176 165 176 168 172 151 167 194 181 189 187 180 151 155 207 211 193 241 177 214
143 142 133 133 134 137 147 116 122 138 140 130 137 122 143 141 139 159 160 148 159 159 148 165 156 164 145 170 169 177 158 182 182 192 193 189 177 178 186 181 170 186 172 214 230 250 204
119 143 139 128 150 132 149 113 136 134 142 123 138 149 149 145 140 147 154 157 159 160 161 158 147 162 135 162 166 183 190 182 156 215 203 181 200 186 178 188 188 222 221 212 201 187 189
136 150 123 118 132 125 121 131 148 155 130 147 145 153 146 144 131 139 146 156 145 143 165 169 153 161 169 163 148 165 173 190 188 209 188 196 181 186 216 196 167 183 192 176 193 217 211
134 133 134 127 113 126 135 150 140 141 138 138 131 141 140 152 142 156 143 139 149 164 165 140 174 168 177 176 183 183 164 158 168 184 180 199 175 182 185 195 192 176 192 211 186 195 221
144 129 131 123 144 129 149 150 133 145 145 147 151 148 154 156 138 159 157 143 155 151 160 175 151 173 186 180 177 167 182 158 172 180 169 170 171 164 194 159 190 184 207 197 190 195 197
127 123 128 136 142 138 142 146 150 136 145 146 152 153 146 137 140 159 152 155 154 167 142 156 157 158 178 184 184 182 182 181 182 176 159 168 173 179 173 187 181 209 190 192 201 184 199
140 142 140 139 144 135 143 143 134 134 152 143 149 140 143 146 135 154 137 160 154 159 164 155 165 174 172 193 168 163 183 184 149 167 175 163 170 196 188 158 214 183 210 201 202 213 195
146 146 140 141 141 155 140 141 140 144 150 147 148 152 157 147 131 131 154 139 160 172 163 150 168 160 184 164 181 194 169 198 204 187 154 176 203 189 183 190 200 185 203 196 208 199 177
139 129 139 138 140 140 147 151 128 144 125 143 132 159 159 157 159 156 143 136 137 154 151 167 138 188 165 174 174 206 165 155 156 206 173 207 187 174 181 185 205 190 197 154 209 194 201
101 141 139 135 151 144 136 137 134 133 146 139 146 150 154 154 157 157 152 158 165 141 161 161 173 165 172 167 171 166 166 213 155 195 193 181 208 196 179 194 200 200 200 207 171 197 211
150 141 132 152 160 144 133 147 143 144 141 142 154 146 149 147 139 146 158 157 146 153 160 168 162 162 149 148 148 173 158 189 176 218 199 196 201 204 177 184 180 197 204 204 196 205 213
131 145 146 130 107 143 142 138 138 146 148 147 151 142 140 153 153 145 146 150 166 164 163 147 181 154 158 186 155 181 158 234 182 170 227 198 176 205 182 188 194 191 200 184 197 200 165
149 142 145 134 160 139 153 134 161 156 142 150 154 157 139 150 139 154 152 165 176 183 178 151 159 165 175 181 150 144 201 170 163 202 223 208 173 170 191 192 205 181 202 204 196 173 184
154 128 130 133 126 136 136 140 143 154 158 160 160 153 138 165 160 161 137 169 174 155 184 155 144 142 160 168 170 156 134 196 169 193 206 161 189 192 196 192 202 191 205 209 207 212 216
145 161 145 153 160 128 164 148 155 155 136 156 156 140 160 178 174 174 171 166 171 170 173 197 177 163 182 189 179 173 162 189 191 199 125 201 184 200 191 207 200 196 184 205 217 200 236
137 146 154 163 145 149 158 151 159 161 168 171 171 139 162 159 176 175 169 161 156 179 148 162 189 177 157 150 176 199 216 167 163 202 197 189 213 183 192 184 177 193 204 201 212 213 266
160 141 153 133 146 171 167 171 169 143 167 151 137 165 162 167 143 134 147 179 166 179 198 153 146 156 135 213 154 198 196 188 172 206 194 200 199 195 186 199 193 204 201 214 226 223 245
167 166 162 160 163 170 174 160 162 157 152 152 164 139 179 130 141 146 151 164 159 181 182 187 146 199 183 156 198 170 198 195 186 196 197 184 204 188 197 184 190 200 175 208 212 245 265
165 167 171 163 142 159 150 152 161 170 154 148 148 149 140 145 166 152 148 181 168 184 181 180 139 183 183 208 164 182 208 194 211 187 195 189 197 193 204 209 200 209 205 208 235 267 263
170 170 152 160 146 160 154 158 145 135 172 147 161 193 184 151 138 162 141 178 166 151 174 188 205 172 176 198 189 193 210 181 208 208 209 189 192 204 186 202 212 210 215 248 240 245 271
154 157 152 159 161 173 134 164 164 160 168 178 170 192 184 165 186 161 150 185 152 150 200 160 198 203 180 196 170 187 186 185 202 198 190 200 197 197 174 199 189 207 213 259 267 235 277
175 168 183 155 168 133 141 193 166 151 165 169 165 179 176 182 148 185 169 192 179 185 207 176 161 191 198 214 205 195 198 184 192 169 175 192 201 196 205 195 204 209 261 254 267 274 181
173 171 194 147 170 153 153 153 168 177 169 182 180 179 181 185 167 177 170 149 183 184 187 180 203 173 186 166 191 184 182 184 184 192 193 201 194 207 200 205 205 250 273 272 276 266 289
163 152 171 170 188 163 181 175 167 175 178 181 187 163 173 192 161 173 179 166 178 189 183 195 188 184 179 199 180 187 193 193 197 201 199 189 203 204 208 208 238 274 286 289 274 103 304
Wind_Speed
18 19 17 10 18 8 12 25 18 27 31 30 34 42 42 27 27 46 45 49 35 52 45 61 58 50 30 60 53 49 63 57 22 56 30 24 36 53 45 49 42 41 25 51 26 22 20
13 5 9 21 12 23 14 21 24 20 24 25 32 39 43 43 34 24 37 26 54 53 50 62 55 51 63 60 47 65 55 43 45 41 26 23 54 38 49 27 39 22 44 45 25 26 21
14 12 10 11 18 20 15 19 18 25 36 21 35 24 41 39 36 43 42 55 55 51 64 41 55 66 50 70 52 37 62 58 56 41 57 47 26 60 55 26 59 47 19 24 36 33 25
20 6 20 13 23 22 21 26 28 20 30 31 41 39 25 47 40 36 50 22 48 39 51 50 63 60 65 45 70 69 68 26 57 59 55 53 56 49 34 36 61 66 44 46 29 31 32
16 23 15 16 16 22 21 29 21 21 32 40 33 43 34 33 52 49 31 50 54 58 59 59 52 53 65 73 56 68 65 66 25 47 53 51 44 56 42 34 33 57 54 40 62 24 37
17 17 23 24 22 25 27 21 29 35 34 23 35 29 38 30 35 55 57 45 56 58 37 64 50 65 26 70 70 73 51 65 66 46 54 53 55 47 42 57 44 62 28 54 75 66 34
23 21 25 19 26 24 31 25 34 29 40 23 39 48 48 45 40 48 54 59 62 62 66 59 40 66 28 61 72 76 72 69 46 48 48 44 48 54 60 59 55 81 79 65 55 39 38
28 23 24 22 26 20 19 31 34 36 26 45 44 50 48 47 34 38 52 61 40 47 71 72 57 66 76 68 36 59 74 55 66 55 58 51 58 55 63 49 52 64 60 53 62 67 63
34 33 32 29 29 28 38 37 36 41 42 38 44 43 41 56 49 61 46 46 53 72 70 36 75 71 77 77 76 75 58 51 60 48 59 54 49 53 55 48 61 59 56 68 59 53 71
32 32 35 24 38 29 40 40 36 41 47 51 51 54 56 56 45 60 64 44 65 52 71 75 62 77 74 76 77 65 74 56 74 73 71 61 67 59 57 51 54 62 59 49 58 56 59
36 26 37 44 42 44 47 46 45 42 46 53 54 57 57 34 43 63 59 69 67 75 43 64 71 62 77 76 78 76 75 75 73 72 61 65 71 64 70 59 56 76 51 58 61 65 65
42 42 43 44 44 47 49 49 44 38 55 47 58 46 52 57 34 68 35 75 73 78 82 49 80 67 65 74 67 67 74 75 44 60 71 74 76 57 61 49 80 61 81 61 65 87 68
46 44 44 46 48 45 48 53 52 56 59 61 63 63 65 54 55 32 72 42 80 78 81 54 78 77 76 57 68 79 61 75 74 68 50 75 60 66 62 60 68 57 74 56 86 78 62
48 47 50 50 51 50 51 53 34 58 33 59 39 65 64 65 64 70 54 40 40 76 71 83 41 72 88 81 63 74 81 62 57 75 70 69 67 68 62 61 72 52 62 43 79 57 73
37 51 51 41 51 53 53 58 48 48 64 53 67 68 70 72 74 73 74 75 73 46 85 85 77 84 84 89 82 86 82 72 52 71 67 70 77 68 65 68 74 78 75 87 62 60 96
55 54 48 55 51 58 50 59 62 65 61 61 67 70 71 69 47 64 79 79 63 68 79 57 75 79 55 67 63 82 68 74 59 71 70 66 70 72 64 66 63 83 87 87 72 79 100
58 60 57 48 37 62 62 60 59 68 68 71 71 65 57 77 74 64 66 67 83 83 80 60 87 82 87 74 56 75 70 68 69 73 73 61 66 75 68 68 80 75 87 69 69 72 39
64 64 62 59 63 65 64 53 68 73 67 75 76 77 56 74 54 81 79 84 82 86 87 72 80 87 82 65 78 55 74 84 55 75 78 73 66 65 77 76 98 56 99 96 75 68 75
67 55 56 58 45 54 63 59 66 77 77 76 75 72 53 80 83 84 56 83 82 77 86 74 60 51 84 88 83 88 49 72 76 66 86 65 66 69 88 79 108 76 108 103 99 114 118
70 68 74 64 73 61 72 73 76 78 60 80 77 57 84 76 79 82 85 86 84 83 85 95 89 79 81 79 79 86 69 75 71 75 44 83 68 98 79 114 102 90 63 95 119 93 126
74 79 76 75 77 76 77 80 70 72 78 79 79 58 85 87 81 83 84 88 83 90 57 85 90 91 90 81 83 83 91 84 65 76 79 72 107 58 94 94 84 97 111 94 126 118 97
80 73 81 70 81 76 78 78 79 77 79 81 62 83 88 87 75 56 68 93 97 97 92 87 72 94 54 95 75 86 87 84 80 99 84 93 89 90 72 110 92 124 103 117 134 139 102
81 79 81 83 81 79 79 82 80 79 81 83 83 66 86 59 76 82 77 93 95 91 92 91 70 106 95 89 93 79 93 92 84 85 85 64 105 71 115 91 85 118 79 116 121 124 97
87 84 83 83 80 84 86 86 85 86 87 86 84 75 68 85 85 94 76 96 94 99 93 104 55 92 91 96 79 89 107 91 112 75 87 75 103 90 130 131 116 130 108 121 132 102 97
91 89 86 85 87 90 89 88 83 72 89 84 92 97 87 92 68 89 71 91 92 91 94 99 117 96 89 101 97 99 117 79 120 122 123 72 95 129 75 125 135 133 130 128 126 108 95
91 94 91 89 88 90 71 93 91 92 91 92 90 102 92 92 96 97 73 110 77 85 95 92 103 127 89 104 89 93 91 88 113 109 101 122 112 126 58 122 77 128 130 117 109 112 91
92 90 94 95 94 68 88 95 95 92 93 94 93 100 103 102 76 102 82 119 102 105 111 97 80 123 127 124 121 120 121 90 118 79 42 113 134 125 138 110 127 132 120 116 105 99 53
99 93 95 89 92 94 104 99 93 94 93 107 109 108 112 116 96 97 100 76 107 111 105 98 127 97 112 88 122 105 102 107 103 126 117 138 110 140 125 131 126 125 110 105 99 97 89
98 92 101 91 111 97 102 96 88 91 106 115 118 93 107 127 89 91 104 90 106 127 104 140 122 108 102 131 96 125 134 129 136 140 138 94 134 129 136 129 135 109 102 94 95 26 83
Wind_Direction
316 20 280 9 26 319 347 19 24 17 16 14 18 10 14 9 357 15 19 18 17 19 27 12 18 19 11 15 8 2 7 5 357 7 15 16 3 13 14 15 10 16 334 20 1 347 288
242 325 6 310 315 3 320 7 6 350 348 15 13 11 9 12 14 6 3 19 15 16 17 14 19 20 13 15 10 6 8 0 5 1 21 347 12 17 10 13 8 337 2 16 319 357 340
247 299 301 340 314 351 353 332 341 11 359 348 2 336 7 10 13 7 13 2 9 12 6 22 12 9 18 5 15 1 6 5 2 4 4 354 359 353 350 7 355 359 309 313 351 353 352
326 338 342 337 327 350 355 352 358 350 3 6 352 1 2 357 7 6 356 354 10 358 11 14 6 10 6 18 5 6 5 357 2 357 356 359 357 19 329 357 347 9 352 357 329 295 351
302 314 339 330 336 332 319 355 351 317 352 351 352 353 1 351 352 0 4 4 1 360 0 4 11 6 3 359 6 2 3 359 347 358 353 351 3 353 349 302 305 360 3 343 5 293 352
300 312 310 323 332 340 344 328 326 357 354 340 354 323 356 345 357 348 349 350 351 353 7 352 358 358 3 356 360 356 6 358 356 349 352 350 350 342 340 346 323 338 312 354 10 7 335
320 309 314 322 327 338 330 320 345 350 345 306 351 342 344 350 2 354 349 346 347 349 349 357 3 356 325 357 354 350 352 354 357 355 351 342 349 345 346 340 343 12 6 354 335 328 331
300 306 312 300 330 319 306 336 331 325 339 334 338 332 339 347 324 352 341 343 348 340 342 343 347 350 346 341 343 353 351 350 352 352 350 347 348 342 9 349 339 343 339 326 340 359 355
302 308 312 321 280 326 327 317 331 331 326 330 325 324 342 333 347 334 331 331 348 338 340 340 339 343 338 341 341 343 350 352 345 343 351 345 340 342 340 342 355 332 343 4 328 338 358
293 295 316 312 309 315 310 314 328 320 325 325 323 327 325 327 340 333 333 342 336 336 338 336 349 339 337 338 342 344 340 351 348 346 348 343 345 345 337 335 336 339 2 343 330 329 325
315 307 311 311 307 315 313 314 311 328 319 322 320 320 329 341 341 327 335 333 335 333 334 342 343 342 337 336 335 336 337 340 339 342 345 340 340 336 339 326 339 3 323 335 343 315 330
284 287 296 304 302 312 307 311 320 321 311 317 320 326 325 326 329 327 337 327 332 332 331 336 335 340 337 337 342 341 333 334 324 337 334 341 336 332 332 319 359 324 357 354 354 358 326
276 279 291 294 300 290 306 309 312 314 310 316 315 315 315 320 318 321 325 334 328 329 331 332 334 337 337 336 333 331 333 334 332 331 327 332 328 329 328 334 352 328 355 339 356 345 320
285 307 294 297 298 300 297 299 302 309 301 313 317 311 312 311 315 317 330 328 327 328 331 328 320 334 331 333 333 336 338 341 334 330 331 330 325 328 321 328 350 335 350 309 350 322 344
284 286 292 290 284 291 304 309 309 308 304 316 311 309 309 311 312 314 318 319 320 326 322 324 327 328 329 330 331 333 331 332 330 332 328 331 330 329 319 337 350 348 349 352 318 332 350
272 284 288 284 281 288 305 294 298 298 308 308 298 307 307 311 318 316 313 315 316 319 322 320 327 327 329 329 332 329 327 332 334 334 329 330 332 337 320 325 331 347 349 348 341 346 348
291 276 280 280 287 289 292 299 289 296 297 299 298 308 310 303 305 316 318 319 314 316 317 326 319 326 323 328 323 325 329 340 331 336 344 325 327 341 320 334 343 334 346 339 339 335 316
267 278 281 293 275 292 279 301 281 285 303 296 292 295 308 305 314 306 311 309 311 312 313 321 321 315 314 328 324 323 333 323 325 337 342 335 324 322 335 336 342 307 343 343 335 315 322
267 292 279 289 289 284 297 294 284 285 287 289 292 295 308 297 299 302 305 309 311 313 315 317 311 315 320 314 316 320 311 329 324 334 341 325 322 332 340 339 342 337 341 341 343 342 337
272 266 275 277 269 283 274 286 281 286 291 291 295 295 296 299 299 301 303 305 309 311 311 316 312 314 318 318 317 313 314 326 327 326 313 335 322 342 337 342 342 337 308 338 342 329 339
278 271 268 270 280 279 274 280 282 286 287 289 291 296 295 299 302 303 304 305 309 311 308 313 312 312 315 318 315 322 328 318 323 323 333 324 340 318 337 335 333 336 337 338 340 339 331
259 265 265 277 278 277 277 280 281 292 286 292 295 292 295 296 306 295 305 305 308 309 308 315 318 311 299 316 310 316 323 318 321 331 330 334 337 337 332 336 338 336 336 336 337 337 333
262 261 263 266 269 273 277 276 277 283 288 288 289 290 290 295 303 304 305 299 300 306 314 315 310 317 316 312 316 310 320 326 317 328 328 316 335 333 335 330 332 333 319 335 334 331 330
262 262 265 266 278 273 276 278 278 280 284 289 290 285 294 297 290 297 303 308 300 310 309 310 305 311 314 313 309 309 324 322 327 317 329 324 334 334 330 329 331 329 332 333 330 329 328
262 262 268 264 275 272 275 275 280 280 284 290 282 294 291 287 293 298 297 303 294 299 304 311 316 312 301 319 317 315 326 305 328 328 327 329 333 327 331 329 327 329 329 328 328 327 326
264 261 267 267 269 272 282 272 273 285 277 286 285 300 297 281 301 284 297 307 303 299 308 297 311 316 303 318 298 314 315 311 326 321 328 326 325 325 307 326 321 326 325 323 323 325 324
259 261 265 267 270 276 282 283 273 281 280 283 279 296 297 300 289 305 290 305 304 306 312 307 307 318 318 318 320 320 321 320 324 309 301 325 320 323 321 325 322 322 321 322 321 323 322
246 259 279 273 282 270 270 271 275 282 281 294 295 298 297 298 291 303 300 294 308 307 306 305 312 303 315 304 318 317 320 318 320 317 317 315 319 317 320 319 321 318 316 318 321 321 323
258 258 273 267 280 269 281 280 274 282 292 294 292 288 293 296 294 298 302 288 305 311 307 312 312 311 310 312 314 313 311 313 311 310 313 318 313 315 315 317 316 313 315 318 320 319 322